APSTAR-6E

Last updated on Thu Nov 21 2024 00:02:45 GMT+0000 (Coordinated Universal Time)

1 55239U 23005A 24324.24977050 -.00000316 00000+0 00000+0 0 9992 2 55239 0.0567 101.3745 0002003 350.0589 191.2936 1.00269564 12928
UTC large
Height (km)
Speed (km/s)
/
Latitude / Longitude
Inclination (degrees)
Orbital Period (minutes)
Azimuth
Elevation
Range (km)
Doppler Factor

Next 0 passes for location: London (51.5072 / 0.1276)

Sorry there are no passes over London.